Location: Indian Springs
(36.5700°N, 115.6700°W)
Time: 10:19:21
(UTC-08:00)

Daily predictions for brighter satellites

Satellite Brightness Start Highest point End
(mag) Time Altitude Azimuth Time Altitude Azimuth Time Altitude Azimuth
Ariane Rocket 4.5 16:49:16 10° S 16:54:05 43° W 16:58:54 10° NNW
IDEFIX/ARIANE 42P 2.8 16:49:13 10° SE 16:54:11 49° ENE 16:59:11 10° N
USA 234 3.9 16:50:29 10° NE 16:56:47 52° NW 17:03:04 10° WSW
Cosmos 2278 Rocket 2.8 16:53:05 10° S 16:58:10 36° ESE 17:03:18 10° NE
Cosmos 1544 Rocket 4.1 16:54:02 10° N 16:58:12 38° E 17:02:21 10° SSE
COSMO-SKYMED 1 3.9 16:55:29 10° NE 16:58:50 21° E 17:02:09 10° SE
Tiangong 1 3.0 16:56:49 10° S 16:58:55 17° SE 17:01:01 10° E
Cosmos 1975 Rocket 3.2 16:54:45 10° S 16:59:03 79° W 17:03:23 10° N
MOS 1 4.3 16:54:48 10° SSE 17:00:23 64° ENE 17:05:59 10° N
ISS -1.8 16:58:07 10° W 17:01:03 29° NNW 17:04:00 10° NNE
BREEZE M DEB (TANK) 4.5 16:59:31 10° NNW 17:01:50 16° NNE 17:05:46 10° ENE
COSMOS 2406 3.3 16:59:55 10° NNW 17:05:40 88° ENE 17:11:25 10° SSE
NOSS 3-3 (A) 4.3 17:01:42 10° S 17:07:31 48° ESE 17:13:44 10° NE
NOSS 3-3 (C) 4.3 17:01:49 10° S 17:07:38 47° ESE 17:13:49 10° NE
Cosmos 1484 Rocket 3.7 17:09:26 10° SE 17:12:32 25° ENE 17:15:38 10° NNE
Cosmos 1536 Rocket 3.9 17:11:24 10° SSE 17:15:37 45° E 17:19:53 10° NNE
Thor Agena Rocket 3.7 17:10:29 10° NNE 17:15:42 81° WNW 17:20:57 10° SSW
Meteor 1-5 Rocket 4.3 17:10:36 10° N 17:16:03 83° W 17:21:39 10° S
ATLAS 2AS CENTAUR R/B 3.1 17:10:46 10° NNW 17:18:43 58° NE 17:26:05 10° SE
YAOGAN 1 2.6 17:18:58 10° SSE 17:23:18 88° W 17:27:38 10° NNW
AQUARIUS 4.3 17:19:27 10° S 17:23:57 80° W 17:28:27 10° NNW
Cosmos 2082 Rocket 3.5 17:21:43 10° NNE 17:25:28 18° NE 17:27:09 16° ENE
Cosmos 2251 Rocket 3.5 17:23:04 10° NNW 17:28:24 64° ENE 17:33:39 10° SSE
Cosmos 1833 Rocket 4.1 17:25:39 10° NNE 17:29:03 16° NE 17:29:26 16° ENE
SL-27 R/B 2.4 17:25:34 10° NNW 17:29:14 84° ENE 17:32:51 10° SSE
MONITOR-E 4.3 17:27:33 10° SSE 17:30:40 54° ENE 17:33:48 10° N
Cosmos 1500 3.8 17:29:07 10° NNE 17:32:35 32° E 17:36:04 10° SE
OE (NEXTSAT) 4.5 17:30:09 10° SW 17:33:42 67° SE 17:35:38 25° ENE
CZ-2C R/B 3.0 17:31:34 10° S 17:36:25 61° W 17:41:28 10° NNW
Cosmos 1238 Rocket 2.7 17:34:02 10° SSW 17:36:58 55° W 17:39:53 10° N
Meteor 1-28 Rocket 4.0 17:35:18 21° NE 17:36:58 30° E 17:40:19 10° SSE
Cosmos 921 Rocket 4.1 17:34:25 10° SSE 17:37:47 24° E 17:38:26 23° E
Hubble Space Telescope 3.7 17:37:38 10° SW 17:38:55 11° SSW 17:40:12 10° S
Okean 1 3.2 17:37:30 10° S 17:41:33 83° E 17:45:37 10° N
SMAP 4.0 17:37:41 10° S 17:42:12 51° W 17:46:44 10° NNW
SL-24 DEB 4.2 17:40:21 10° N 17:45:07 86° E 17:49:48 10° S
Okean 1-7 Rocket 4.2 17:41:10 10° SSE 17:45:14 33° E 17:47:00 24° NE
FALCON 9 R/B 4.0 17:15:48 10° WSW 17:45:32 72° S 17:51:03 22° E
OTV 4 1.8 17:43:03 10° W 17:45:51 35° SSW 17:47:44 17° SE
SKYMED 2 3.5 17:42:43 10° NNE 17:47:04 79° E 17:51:24 10° S
Cosmos 1455 Rocket 3.3 17:43:24 10° N 17:47:48 73° W 17:52:12 10° S
COSMOS 2441 4.4 17:44:54 10° SSE 17:49:45 86° WSW 17:54:40 10° NNW
Meteor 2-4 Rocket 4.5 17:45:42 10° SE 17:50:06 26° E 17:50:24 26° E
Cosmos 1812 3.8 17:49:27 10° SSW 17:53:09 44° W 17:56:52 10° N
Cosmos 2366 rocket 4.4 17:50:12 10° NNW 17:56:30 67° W 18:02:42 10° S
Delta 2 Rocket 4.0 17:53:57 10° SW 17:57:39 41° SSE 17:58:57 32° ESE
SL-24 R/B - RUBIN 2 4.5 17:52:17 10° SSW 17:58:23 68° ESE 18:02:44 23° NE
Cosmos 1346 Rocket 2.6 17:55:52 10° S 17:59:47 89° ESE 18:02:29 19° N
GEOS 3 Rocket 3.6 17:57:49 12° SE 18:02:23 58° NE 18:07:25 10° NNW
Cosmos 375 4.5 17:58:16 10° NNW 18:02:27 49° NE 18:02:49 47° ENE
NOSS 2-1 (D) 3.8 18:01:11 10° S 18:04:34 39° ESE 18:04:34 39° ESE
NOSS 2-1 (C) 3.8 18:01:52 10° S 18:05:13 38° SE 18:05:13 38° SE
Cosmos 1934 Rocket 4.4 18:02:26 10° NNE 18:08:03 35° ENE 18:13:42 10° SE
Cosmos 1241 Rocket 4.5 18:04:18 10° NNW 18:10:58 78° ENE 18:17:31 10° SSE
Timation 2 Rocket 4.3 18:05:36 10° NNW 18:12:15 52° ENE 18:18:28 12° SE
Cosmos 1809 Rocket 4.4 18:08:01 10° N 18:14:12 87° W 18:20:18 10° S
SL-8 R/B 4.5 18:10:57 10° W 18:15:30 43° NNW 18:16:57 34° NNE
Cosmos 2239 Rocket 4.4 18:16:31 10° N 18:22:39 62° E 18:28:43 10° SSE
NOSS 2-1 (E) 3.8 18:20:12 10° SSW 18:23:10 47° SSE 18:23:10 47° SSE
Cosmos 2297 3.7 18:21:00 10° SSW 18:26:38 82° WNW 18:29:17 33° NNE
Cosmos 1975 4.5 18:23:29 10° NNW 18:27:12 35° W 18:30:52 10° SSW
Cosmos 1821 Rocket 3.8 18:25:37 10° N 18:31:42 70° E 18:37:45 10° SSE
Tiangong 1 3.3 18:31:52 10° WSW 18:33:17 25° W 18:33:17 25° W
COSMO-SKYMED 1 4.5 18:31:14 10° NNW 18:34:57 28° WNW 18:38:40 10° SW
Cosmos 1371 Rocket 4.0 18:29:42 10° S 18:34:41 65° SE 18:34:41 65° SE
Meteor 2-8 Rocket 4.3 18:33:58 10° S 18:39:57 66° E 18:40:02 66° E
Cosmos 2278 Rocket 3.9 18:37:26 10° WSW 18:42:15 28° WNW 18:46:47 11° N
Cosmos 2082 Rocket 2.7 19:04:24 10° NNW 19:09:08 56° WNW 19:09:08 56° WNW
CZ-3B DEB 4.3 19:05:25 10° WNW 19:10:29 29° N 19:12:39 27° NNE
Cosmos 1833 Rocket 3.8 19:07:55 10° NNW 19:11:14 36° NW 19:11:14 36° NW
ATLAS 3B CENTAUR R/B 3.4 19:01:20 10° W 19:14:54 47° SSW 19:15:40 45° S
